[[{"header":{"parameterUnit":"m.s-1","parameterCategory":2,"la1":30.2991,"la2":30.254,"lo1":-89.0895,"lo2":-89.0444,"dy":0.0017,"dx":0.0017,"nx":28,"ny":28,"refTime":"2025-07-27T03:00:00:Z","depth":"0","parameterNumber":2,"parameterNumberName":"U-component_of_CURRENTS"},"data":[0,0,0,0,0,0,0,0,0,0,0,0,0,0,0,0,0,0,0,0,0,0,0,0,0,0,0,0,0,0,0,0,0,0,0,0,0,0,0,0,0,0,0,0,0,0,0,0,0,0,0,0,0,0,0,0,0,0,0.1909,0.1909,0,0.1909,0.1909,0.1909,0.1864,0.1863,0.1862,0.1861,0.1859,0.186,0.1861,0,0,0,0,0,0,0,0,0,0,0,0,0,0.1831,0.1832,0.1909,0.1909,0.1909,0.1909,0.1909,0.1909,0.1864,0.1863,0.1861,0.186,0.1858,0.186,0.1861,0,0,0,0,0,0,0,0,0,0,0,0,0,0.1851,0.1833,0.1909,0.1887,0.1885,0.1909,0.1909,0.1909,0.1864,0.1863,0.1861,0.1859,0.1858,0.186,0.1861,0.1904,0,0,0.1866,0.1866,0,0,0,0,0,0,0,0,0.1849,0.1853,0.189,0.1889,0.1887,0.1886,0.1881,0.1908,0.1865,0.1871,0.1861,0.1859,0.1869,0.187,0.1872,0.1904,0.1904,0.1866,0.1867,0.1867,0.1868,0,0,0,0,0,0,0,0.1848,0.1853,0.1908,0.189,0.1888,0.1864,0.1866,0.1886,0.1879,0.1871,0.1868,0.187,0.1868,0.1871,0.1872,0.1904,0.1866,0.1867,0.1868,0.1869,0.1959,0.196,0,0,0,0,0,0,0.1854,0.1852,0.1908,0.1908,0.1864,0.1867,0.1869,0.1887,0.1879,0.1876,0.1871,0.1868,0.1869,0.187,0.1872,0.1916,0.1867,0.1869,0.187,0.1957,0.1959,0.1961,0,0,0,0,0,0,0.1853,0.186,0.1908,0.1879,0.1884,0.1871,0.1891,0.1888,0.1892,0.1879,0.1876,0.1878,0.1868,0.187,0.1885,0.1915,0.1869,0.1871,0.1956,0.1958,0.196,0.2008,0,0,0,0,0,0,0.1851,0.186,0.1877,0.1881,0.1886,0.1933,0.1893,0.1889,0.1896,0.1891,0.1885,0.1883,0.1867,0.1882,0.1886,0.1916,0.1872,0.1954,0.1957,0.1959,0.2004,0.2011,0.2017,0,0,0,0,0,0.1848,0.1879,0.1879,0.1885,0.191,0.1934,0.1936,0.1918,0.1898,0.1913,0.1896,0.1883,0.1903,0.1885,0.1889,0.192,0.1952,0.1956,0.1959,0.2001,0.201,0.2017,0,0,0,0,0,0,0.1852,0.1878,0.1877,0.1913,0.1928,0.1927,0.1936,0.193,0.193,0.192,0.1901,0.1899,0.1925,0.1921,0.1901,0.1956,0.1928,0.1932,0.1958,0.1966,0.1973,0.1954,0.1873,0,0,0,0,0,0.1865,0.1898,0.1911,0.1943,0.1948,0.1946,0.1953,0.1948,0.1947,0.1944,0.1935,0.1932,0.1946,0.1951,0.1959,0.1993,0.1967,0.2017,0.2024,0.2029,0.2018,0.203,0.2036,0.1972,0.1972,0.1972,0,0,0.1876,0.1895,0.1913,0.1947,0.195,0.1963,0.1946,0.1965,0.1971,0.1947,0.1949,0.1957,0.196,0.1987,0.2,0.1985,0.2029,0.2034,0.2038,0.2023,0.2034,0.204,0.2046,0.1974,0.1974,0.1973,0,0,0.1907,0.193,0.1958,0.1979,0.1996,0.1987,0.1997,0.2001,0.1997,0.2013,0.1997,0.2015,0.2031,0.2036,0.2043,0.2096,0.2064,0.2111,0.2129,0.2142,0.2147,0.2151,0.2099,0.2098,0.2114,0.2114,0.2114,0,0.1906,0.196,0.1971,0.2,0.2008,0.1998,0.2015,0.202,0.2027,0.2031,0.2017,0.2043,0.2051,0.2084,0.2099,0.211,0.209,0.2098,0.2149,0.2153,0.2156,0.2102,0.21,0.2117,0.2116,0.2116,0.2116,0,0.1962,0.1999,0.2018,0.2043,0.2048,0.2075,0.2068,0.207,0.2057,0.2065,0.2092,0.2099,0.2109,0.2133,0.213,0.2171,0.2137,0.2156,0.2125,0.2165,0.2105,0.2102,0.2121,0.212,0.2119,0.2118,0,0,0.1955,0.2037,0.2042,0.206,0.2077,0.2082,0.2083,0.2089,0.2089,0.2106,0.2116,0.2154,0.2158,0.2165,0.2178,0.2195,0.22,0.2188,0.2187,0.2125,0.2182,0.2002,0.1981,0.2235,0.2236,0.2236,0.2119,0,0.1984,0.2054,0.2075,0.2107,0.213,0.2117,0.2113,0.2116,0.2117,0.2126,0.2149,0.2169,0.2173,0.2184,0.2204,0.2209,0.22,0.2226,0.216,0.2156,0.1985,0.1976,0.1886,0.1762,0.2116,0.2116,0.2116,0,0.2012,0.2062,0.2109,0.2138,0.214,0.2145,0.2122,0.2124,0.2136,0.214,0.2164,0.218,0.2203,0.2207,0.2202,0.2219,0.2196,0.2191,0.2187,0.1998,0.1972,0.1786,0.1743,0.1724,0.2111,0.2111,0.2112,0,0.1989,0.2066,0.21,0.2121,0.2151,0.2148,0.214,0.2136,0.2127,0.2154,0.2157,0.2187,0.2191,0.2192,0.216,0.2192,0.2132,0.2175,0.1977,0.1962,0.1857,0.183,0.1776,0.2158,0.2159,0.2159,0.2159,0,0.1997,0.2024,0.2104,0.2127,0.2142,0.215,0.214,0.2139,0.2138,0.2133,0.2168,0.2172,0.2196,0.2165,0.2146,0.2014,0.2109,0.1949,0.1921,0.1865,0.1842,0.1796,0.1813,0.2155,0.2156,0.2156,0.2157,0,0.1952,0.2013,0.2061,0.2123,0.2133,0.2137,0.2132,0.2124,0.2128,0.2119,0.2125,0.2152,0.2097,0.2061,0.2037,0.1959,0.181,0.1814,0.1698,0.1656,0.1429,0.1451,0.1278,0.1257,0.1568,0.1563,0.1558,0,0.1936,0.1962,0.2049,0.2074,0.2104,0.2116,0.2106,0.2109,0.2102,0.2102,0.2099,0.2059,0.2024,0.1867,0.1727,0.1578,0.1616,0.1384,0.1426,0.1364,0.1373,0.1378,0.1378,0.1306,0.13,0.1296,0.1292,0,0.191,0.1943,0.1998,0.2049,0.2069,0.2072,0.2078,0.2065,0.2052,0.204,0.2029,0.2009,0.1839,0.1641,0.1399,0.1317,0.1309,0.1271,0.1281,0.1194,0.1128,0.1111,0.1403,0.1248,0.1252,0.1255,0.1258,0.1259,0.1895,0.1932,0.2003,0.2032,0.2049,0.2035,0.1997,0.1994,0.1956,0.1876,0.1922,0.1789,0.1577,0.1235,0.1143,0.0863,0.0966,0.0815,0.0852,0.0866,0.0824,0.0952,0.0722,0.0723,0.0725,0.0726,0.0726,0,0.191,0.1947,0.1975,0.202,0.1999,0.2008,0.1969,0.1897,0.1826,0.1727,0.1662,0.137,0.112,0.0922,0.0581,0.0483,0.0533,0.0467,0.0536,0.0567,0.074,0.0709,0.0376,0.0376,0.0376,0.0376,0.0376,0.0376,0.1931,0.1971,0.1979,0.1959,0.1959,0.1859,0.181,0.1706,0.16,0.1357,0.114,0.1032,0.0825,0.0523,0.0296,0.0277,0.0328,0.0244,0.0324,0.0533,0.0573,0.0612,0.0589,0.0235,0.0235,0.0144,0.0143,0.0143]},{"header":{"parameterUnit":"m.s-1","parameterCategory":2,"la1":30.2991,"la2":30.254,"lo1":-89.0895,"lo2":-89.0444,"dy":0.0017,"dx":0.0017,"nx":28,"ny":28,"refTime":"2025-07-27T03:00:00:Z","depth":"0","parameterNumber":3,"parameterNumberName":"V-component_of_CURRENTS"},"data":[0,0,0,0,0,0,0,0,0,0,0,0,0,0,0,0,0,0,0,0,0,0,0,0,0,0,0,0,0,0,0,0,0,0,0,0,0,0,0,0,0,0,0,0,0,0,0,0,0,0,0,0,0,0,0,0,0,0,-0.0489,-0.049,0,-0.057,-0.0571,-0.0572,-0.0622,-0.0622,-0.0622,-0.0622,-0.0623,-0.0623,-0.0623,0,0,0,0,0,0,0,0,0,0,0,0,0,-0.034,-0.0342,-0.0489,-0.049,-0.0491,-0.0569,-0.0571,-0.0572,-0.0622,-0.0622,-0.0622,-0.0622,-0.0623,-0.0623,-0.0623,0,0,0,0,0,0,0,0,0,0,0,0,0,-0.0412,-0.0343,-0.0489,-0.0524,-0.0528,-0.0569,-0.0571,-0.0572,-0.0622,-0.0622,-0.0622,-0.0622,-0.0623,-0.0623,-0.0623,-0.0619,0,0,-0.0622,-0.0622,0,0,0,0,0,0,0,0,-0.0408,-0.0418,-0.0518,-0.0522,-0.0526,-0.0584,-0.0518,-0.0583,-0.0622,-0.0588,-0.0622,-0.0622,-0.0601,-0.0603,-0.0621,-0.0619,-0.0619,-0.0622,-0.0622,-0.0622,-0.0622,0,0,0,0,0,0,0,-0.0403,-0.0415,-0.0523,-0.0519,-0.0524,-0.0522,-0.0533,-0.0531,-0.0592,-0.0591,-0.0594,-0.06,-0.0603,-0.0621,-0.0621,-0.0619,-0.0622,-0.0622,-0.0622,-0.0622,-0.0564,-0.0562,0,0,0,0,0,0,-0.0392,-0.041,-0.052,-0.0525,-0.0464,-0.0524,-0.0537,-0.0567,-0.0594,-0.0599,-0.06,-0.0602,-0.0622,-0.0622,-0.0621,-0.0582,-0.0622,-0.0622,-0.0622,-0.0565,-0.0564,-0.0562,0,0,0,0,0,0,-0.0389,-0.0402,-0.0517,-0.0466,-0.0481,-0.0527,-0.056,-0.0568,-0.0586,-0.0602,-0.0605,-0.0609,-0.0622,-0.0622,-0.0616,-0.0583,-0.0622,-0.0622,-0.0567,-0.0565,-0.0563,-0.0525,0,0,0,0,0,0,-0.0385,-0.0401,-0.0415,-0.0467,-0.0483,-0.0535,-0.056,-0.057,-0.0589,-0.0592,-0.061,-0.0611,-0.0622,-0.0617,-0.0616,-0.0584,-0.0622,-0.0569,-0.0566,-0.0563,-0.0528,-0.0522,-0.0517,0,0,0,0,0,-0.038,-0.0397,-0.0415,-0.0428,-0.0503,-0.0535,-0.0543,-0.0576,-0.0589,-0.0594,-0.0605,-0.0611,-0.0598,-0.0616,-0.0616,-0.0583,-0.057,-0.0567,-0.0564,-0.0531,-0.0523,-0.0517,0,0,0,0,0,0,-0.0333,-0.0405,-0.0426,-0.0464,-0.0493,-0.0542,-0.0549,-0.0572,-0.0589,-0.0588,-0.0605,-0.0606,-0.0588,-0.0589,-0.0608,-0.0555,-0.0579,-0.0575,-0.0554,-0.0547,-0.0541,-0.052,-0.0622,0,0,0,0,0,-0.033,-0.0367,-0.042,-0.0446,-0.0461,-0.0503,-0.0519,-0.0542,-0.0565,-0.0574,-0.0586,-0.0584,-0.0574,-0.0565,-0.0564,-0.054,-0.0522,-0.0512,-0.0506,-0.0501,-0.0483,-0.0421,-0.0407,-0.0551,-0.0551,-0.0551,0,0,-0.0317,-0.0361,-0.038,-0.0438,-0.0465,-0.0477,-0.0514,-0.0534,-0.0533,-0.0567,-0.0564,-0.0571,-0.0565,-0.0542,-0.0531,-0.0538,-0.0455,-0.0497,-0.0493,-0.0477,-0.0416,-0.0402,-0.0389,-0.0549,-0.0549,-0.055,0,0,-0.0302,-0.0349,-0.037,-0.0394,-0.0432,-0.0454,-0.0456,-0.05,-0.0509,-0.051,-0.0525,-0.0508,-0.0509,-0.049,-0.0481,-0.0436,-0.0433,-0.0435,-0.0382,-0.0323,-0.031,-0.0299,-0.0279,-0.0266,-0.0424,-0.0424,-0.0424,0,-0.028,-0.0326,-0.0373,-0.0392,-0.0404,-0.0439,-0.0444,-0.0453,-0.0486,-0.0479,-0.0498,-0.0474,-0.0474,-0.0424,-0.0411,-0.0419,-0.0403,-0.0414,-0.0314,-0.0303,-0.0292,-0.0274,-0.026,-0.0422,-0.0422,-0.0423,-0.0423,0,-0.0285,-0.0311,-0.0319,-0.0359,-0.037,-0.0382,-0.04,-0.0399,-0.0409,-0.0418,-0.0386,-0.0388,-0.0369,-0.0361,-0.0375,-0.0295,-0.0316,-0.0322,-0.0334,-0.0275,-0.0261,-0.0247,-0.0419,-0.042,-0.042,-0.0421,0,0,-0.0272,-0.0316,-0.032,-0.0329,-0.0357,-0.0369,-0.0346,-0.0343,-0.0324,-0.0328,-0.0295,-0.0269,-0.0275,-0.0262,-0.0268,-0.0212,-0.0135,-0.0232,-0.023,-0.0215,-0.0028,-0.0052,-0.004,-0.0125,-0.0122,-0.0119,-0.0057,0,-0.0262,-0.0284,-0.0307,-0.0306,-0.0317,-0.0327,-0.0306,-0.0297,-0.0288,-0.0262,-0.0235,-0.0213,-0.0235,-0.0224,-0.0169,-0.0143,-0.0093,-0.0152,-0.0083,-0.0082,-0.0111,-0.0022,-0.0005,0.0053,-0.0044,-0.0041,-0.004,0,-0.0269,-0.0284,-0.0287,-0.0291,-0.0294,-0.0287,-0.026,-0.0248,-0.0206,-0.0195,-0.0155,-0.0151,-0.0078,-0.0107,-0.0005,-0.0045,-0.0028,-0.0007,-0.0004,-0.0024,-0.0079,-0.0016,0.0081,0.0112,-0.0019,-0.0021,-0.0022,0,-0.0253,-0.027,-0.0271,-0.0277,-0.028,-0.0267,-0.026,-0.0228,-0.0205,-0.0152,-0.0124,-0.0057,-0.0021,0.0037,0.0064,0.0039,0.0169,0.0138,0.0131,0.0127,0.016,0.0154,0.0299,0.0223,0.0223,0.0223,0.0223,0,-0.0249,-0.025,-0.0265,-0.0268,-0.0253,-0.026,-0.0226,-0.0207,-0.0162,-0.0115,-0.0093,-0.0037,0.0022,0.0085,0.0105,0.0165,0.0204,0.0168,0.0164,0.0169,0.0164,0.0203,0.0202,0.0225,0.0225,0.0224,0.0224,0,-0.0233,-0.0247,-0.025,-0.0252,-0.025,-0.0241,-0.0216,-0.018,-0.0151,-0.0082,-0.0061,0.0004,0.0087,0.0128,0.0221,0.0216,0.0298,0.0273,0.0252,0.0245,0.0256,0.0255,0.038,0.0426,0.0293,0.0293,0.0293,0,-0.0224,-0.0227,-0.0237,-0.0227,-0.0227,-0.0215,-0.0189,-0.0172,-0.0125,-0.0053,-0.0003,0.0071,0.0143,0.0246,0.0268,0.0313,0.0328,0.0329,0.0296,0.0293,0.029,0.0277,0.0306,0.0344,0.0344,0.0344,0.0345,0,-0.0196,-0.0206,-0.0204,-0.0183,-0.0166,-0.015,-0.0114,-0.0081,-0.0038,0.0017,0.0105,0.0157,0.0228,0.0295,0.0321,0.034,0.0366,0.0336,0.0372,0.0389,0.0352,0.0379,0.0228,0.0348,0.0348,0.0348,0.0348,0.0347,-0.0166,-0.0158,-0.0145,-0.012,-0.0103,-0.0061,-0.0034,0.0018,0.0085,0.0172,0.0192,0.027,0.0313,0.0361,0.0378,0.0402,0.0393,0.041,0.042,0.0414,0.0445,0.0277,0.0362,0.0362,0.0362,0.0361,0.0361,0,-0.0111,-0.0095,-0.007,-0.0045,-0.0007,-0.0012,0.0042,0.0073,0.0159,0.0231,0.0294,0.0366,0.0427,0.0446,0.0465,0.0486,0.0501,0.0507,0.0523,0.0559,0.0457,0.0445,0.0506,0.0506,0.0505,0.0505,0.0505,0.0505,-0.0076,-0.0037,-0.0022,0.0054,0.0074,0.0114,0.0145,0.0184,0.0231,0.0321,0.0373,0.0404,0.0441,0.0501,0.0561,0.0578,0.0636,0.0614,0.0652,0.0589,0.0581,0.0573,0.0565,0.065,0.065,0.0769,0.077,0.0771]}],[{"header":{"parameterUnit":"m.s-1","parameterCategory":2,"la1":30.2991,"la2":30.254,"lo1":-89.0895,"lo2":-89.0444,"dy":0.0017,"dx":0.0017,"nx":28,"ny":28,"refTime":"2025-07-27T03:00:00:Z","depth":"2","parameterNumber":2,"parameterNumberName":"U-component_of_CURRENTS"},"data":[0,0,0,0,0,0,0,0,0,0,0,0,0,0,0,0,0,0,0,0,0,0,0,0,0,0,0,0,0,0,0,0,0,0,0,0,0,0,0,0,0,0,0,0,0,0,0,0,0,0,0,0,0,0,0,0,0,0,0.0594,0.0595,0,0.0634,0.0633,0.0633,0.0605,0.0605,0.0605,0.0606,0.0503,0.05,0.0497,0,0,0,0,0,0,0,0,0,0,0,0,0,0.0387,0.039,0.0594,0.0596,0.0598,0.0635,0.0633,0.0632,0.0605,0.0605,0.0605,0.0606,0.0504,0.0501,0.0497,0,0,0,0,0,0,0,0,0,0,0,0,0,0.0441,0.0391,0.0593,0.0601,0.0603,0.0635,0.0633,0.0632,0.0605,0.0605,0.0605,0.0606,0.0505,0.0501,0.0497,0.0461,0,0,0.0483,0.0481,0,0,0,0,0,0,0,0,0.0438,0.0447,0.0597,0.06,0.0603,0.063,0.0524,0.0574,0.0605,0.0586,0.0606,0.0606,0.0543,0.0535,0.052,0.0456,0.0452,0.0483,0.048,0.0478,0.0477,0,0,0,0,0,0,0,0.0435,0.0445,0.0593,0.06,0.0604,0.0567,0.0574,0.0532,0.0546,0.0588,0.059,0.0621,0.0541,0.0525,0.0518,0.045,0.0483,0.0479,0.0476,0.0474,0.0585,0.059,0,0,0,0,0,0,0.0469,0.0442,0.0592,0.0596,0.0539,0.0572,0.0579,0.0607,0.055,0.0548,0.0621,0.062,0.0532,0.0523,0.0514,0.058,0.0478,0.0474,0.0471,0.0579,0.0586,0.0592,0,0,0,0,0,0,0.0464,0.0482,0.059,0.0532,0.0546,0.0578,0.0607,0.0608,0.0588,0.058,0.0571,0.0603,0.0532,0.052,0.0547,0.0571,0.0472,0.0468,0.0573,0.0582,0.0589,0.064,0,0,0,0,0,0,0.0458,0.0479,0.0451,0.0535,0.0552,0.061,0.0609,0.0609,0.0615,0.0613,0.0561,0.0552,0.0531,0.0555,0.0543,0.0564,0.0464,0.0566,0.0577,0.0587,0.0631,0.0649,0.0665,0,0,0,0,0,0.045,0.0473,0.0449,0.0465,0.0532,0.0612,0.0614,0.0626,0.0614,0.0605,0.0627,0.0554,0.0614,0.0554,0.0539,0.0559,0.0561,0.0574,0.0586,0.0624,0.0646,0.0664,0,0,0,0,0,0,0.0388,0.0476,0.0452,0.0498,0.0536,0.0614,0.0632,0.0619,0.0621,0.0631,0.0595,0.059,0.0629,0.0611,0.0546,0.0643,0.0586,0.0596,0.062,0.064,0.0656,0.0644,0.0461,0,0,0,0,0,0.0356,0.0392,0.0456,0.0493,0.0525,0.0557,0.0572,0.0589,0.0636,0.0633,0.0625,0.0645,0.0669,0.0667,0.0683,0.07,0.0688,0.0726,0.0743,0.0756,0.075,0.0833,0.0853,0.0634,0.0634,0.0633,0,0,0.0342,0.0404,0.0414,0.0479,0.0524,0.0563,0.0566,0.0631,0.0642,0.0622,0.065,0.0682,0.0694,0.0749,0.0764,0.0729,0.0809,0.0772,0.0781,0.0768,0.0847,0.0868,0.0886,0.0642,0.0641,0.0639,0,0,0.0361,0.0401,0.041,0.0438,0.0509,0.0575,0.0591,0.0664,0.0668,0.0703,0.0729,0.0794,0.0795,0.0842,0.0853,0.0969,0.0896,0.0985,0.1033,0.1114,0.113,0.1145,0.1112,0.1124,0.0988,0.0989,0.0989,0,0.0332,0.0354,0.0425,0.0438,0.0493,0.0583,0.0615,0.0637,0.0702,0.0715,0.0727,0.0832,0.0839,0.0914,0.0991,0.0992,0.1002,0.0933,0.1127,0.1142,0.1155,0.1119,0.1131,0.0993,0.0992,0.0992,0.0991,0,0.0322,0.0329,0.038,0.0433,0.0496,0.057,0.0649,0.0697,0.075,0.0756,0.0839,0.0909,0.0967,0.1009,0.1026,0.1148,0.1107,0.113,0.105,0.1179,0.1134,0.1145,0.0998,0.0997,0.0996,0.0995,0,0,0.0353,0.0355,0.0377,0.0357,0.0506,0.0565,0.066,0.0746,0.0769,0.0839,0.0881,0.0992,0.1032,0.106,0.1117,0.121,0.1313,0.1226,0.1228,0.1144,0.1424,0.1194,0.1182,0.1381,0.1384,0.1387,0.1334,0,0.0338,0.0332,0.0374,0.0417,0.0449,0.0567,0.066,0.0736,0.0797,0.0856,0.094,0.0996,0.1043,0.1101,0.1207,0.1296,0.1354,0.132,0.1355,0.1354,0.1095,0.1193,0.1115,0.1046,0.1344,0.1346,0.1347,0,0.0367,0.0338,0.0363,0.0407,0.0442,0.0493,0.0676,0.0742,0.0849,0.0887,0.0968,0.0998,0.1137,0.118,0.1346,0.1328,0.1382,0.1442,0.1442,0.1214,0.1146,0.0983,0.1053,0.1364,0.1363,0.1361,0.136,0,0.043,0.0386,0.0413,0.0417,0.0474,0.0521,0.0616,0.0751,0.0826,0.0905,0.0954,0.1058,0.1167,0.1263,0.1334,0.1372,0.1483,0.1534,0.1354,0.1333,0.1261,0.1227,0.165,0.165,0.165,0.165,0.165,0,0.0502,0.0502,0.0399,0.04,0.0441,0.0509,0.0604,0.0703,0.0841,0.0929,0.0971,0.1041,0.1221,0.1268,0.1324,0.1319,0.1454,0.1352,0.1325,0.1271,0.124,0.1527,0.1514,0.1648,0.1648,0.1649,0.1649,0,0.0615,0.0579,0.0528,0.047,0.0486,0.0519,0.0628,0.0712,0.081,0.0942,0.0982,0.1091,0.1128,0.1174,0.1315,0.1294,0.1304,0.1264,0.1108,0.1063,0.11,0.1091,0.108,0.1072,0.1065,0.1059,0.1054,0,0.0669,0.0668,0.0554,0.0573,0.0545,0.057,0.0694,0.0765,0.0851,0.0944,0.1044,0.1058,0.1049,0.1039,0.1009,0.0949,0.1105,0.0843,0.0908,0.1076,0.1053,0.1055,0.1055,0.0832,0.0826,0.0821,0.0817,0,0.0707,0.0679,0.0596,0.0649,0.0703,0.071,0.0812,0.0839,0.0957,0.1005,0.1044,0.0991,0.0928,0.0802,0.0667,0.0651,0.0833,0.0729,0.1019,0.0948,0.0829,0.0809,0.0822,0.0772,0.0776,0.0779,0.0782,0.0784,0.0721,0.0692,0.0662,0.0712,0.0758,0.0821,0.0826,0.0873,0.0922,0.0922,0.0954,0.0813,0.0742,0.0443,0.0404,0.038,0.0459,0.0487,0.0512,0.054,0.0481,0.0352,0.0189,0.019,0.0191,0.0192,0.0193,0,0.0697,0.077,0.0794,0.0825,0.0844,0.0889,0.093,0.0873,0.0828,0.0803,0.0747,0.0503,0.0327,0.027,0.0144,0.0095,0.0218,0.0119,0.0309,0.0348,0.0384,0.0329,-0.0008,-0.0008,-0.0008,-0.0008,0,0,0.0763,0.0794,0.0809,0.0864,0.0909,0.0911,0.0872,0.0769,0.0672,0.0493,0.0379,0.0283,0.021,0.008,0.0054,0.002,0.0216,0.0022,0.017,0.0433,0.0472,0.0558,0.0506,0,0,0,0,0]},{"header":{"parameterUnit":"m.s-1","parameterCategory":2,"la1":30.2991,"la2":30.254,"lo1":-89.0895,"lo2":-89.0444,"dy":0.0017,"dx":0.0017,"nx":28,"ny":28,"refTime":"2025-07-27T03:00:00:Z","depth":"2","parameterNumber":3,"parameterNumberName":"V-component_of_CURRENTS"},"data":[0,0,0,0,0,0,0,0,0,0,0,0,0,0,0,0,0,0,0,0,0,0,0,0,0,0,0,0,0,0,0,0,0,0,0,0,0,0,0,0,0,0,0,0,0,0,0,0,0,0,0,0,0,0,0,0,0,0,-0.0294,-0.0295,0,-0.0317,-0.0317,-0.0316,-0.0297,-0.0297,-0.0297,-0.0296,-0.0193,-0.019,-0.0188,0,0,0,0,0,0,0,0,0,0,0,0,0,-0.0155,-0.0158,-0.0294,-0.0295,-0.0296,-0.0317,-0.0317,-0.0316,-0.0297,-0.0297,-0.0296,-0.0296,-0.0194,-0.0191,-0.0187,0,0,0,0,0,0,0,0,0,0,0,0,0,-0.0193,-0.0158,-0.0294,-0.0295,-0.0296,-0.0317,-0.0317,-0.0316,-0.0297,-0.0297,-0.0296,-0.0296,-0.0195,-0.0191,-0.0187,-0.0163,0,0,-0.0175,-0.0173,0,0,0,0,0,0,0,0,-0.0191,-0.0197,-0.0294,-0.0295,-0.0296,-0.0311,-0.023,-0.0262,-0.0297,-0.0288,-0.0296,-0.0296,-0.0226,-0.022,-0.0214,-0.0159,-0.0154,-0.0174,-0.0172,-0.017,-0.0169,0,0,0,0,0,0,0,-0.0188,-0.0196,-0.0295,-0.0295,-0.0297,-0.0268,-0.0273,-0.0236,-0.0248,-0.0288,-0.0289,-0.0305,-0.0225,-0.0218,-0.0211,-0.0153,-0.0174,-0.0171,-0.0168,-0.0167,-0.0142,-0.0144,0,0,0,0,0,0,-0.0207,-0.0194,-0.0294,-0.0296,-0.0252,-0.0272,-0.0277,-0.03,-0.0251,-0.0248,-0.0305,-0.0304,-0.0225,-0.0216,-0.0207,-0.0185,-0.017,-0.0166,-0.0164,-0.0141,-0.0143,-0.0145,0,0,0,0,0,0,-0.0204,-0.0216,-0.0293,-0.0251,-0.026,-0.0276,-0.03,-0.03,-0.0298,-0.0267,-0.0259,-0.0304,-0.0225,-0.0213,-0.0218,-0.018,-0.0164,-0.0161,-0.0138,-0.0141,-0.0144,-0.0134,0,0,0,0,0,0,-0.02,-0.0215,-0.022,-0.0253,-0.0264,-0.0301,-0.0301,-0.0301,-0.0312,-0.0311,-0.0263,-0.0254,-0.0224,-0.0224,-0.0214,-0.0175,-0.0157,-0.0136,-0.014,-0.0143,-0.0132,-0.0136,-0.014,0,0,0,0,0,-0.0195,-0.0206,-0.022,-0.0232,-0.0276,-0.0302,-0.0303,-0.0308,-0.0312,-0.0305,-0.0313,-0.0256,-0.0237,-0.0224,-0.021,-0.0168,-0.0135,-0.0139,-0.0143,-0.0131,-0.0136,-0.014,0,0,0,0,0,0,-0.0141,-0.0208,-0.0222,-0.0252,-0.0276,-0.0302,-0.03,-0.0312,-0.0311,-0.0315,-0.0282,-0.0274,-0.0263,-0.024,-0.0225,-0.0182,-0.0173,-0.0175,-0.0169,-0.0173,-0.0177,-0.0146,-0.0154,0,0,0,0,0,-0.0138,-0.0168,-0.0218,-0.0239,-0.0253,-0.0278,-0.0286,-0.03,-0.0316,-0.0314,-0.0295,-0.0282,-0.0268,-0.0244,-0.0232,-0.0201,-0.0165,-0.0172,-0.0176,-0.0178,-0.0152,-0.0089,-0.0083,-0.0158,-0.0158,-0.0158,0,0,-0.0119,-0.0165,-0.0177,-0.023,-0.0248,-0.025,-0.0279,-0.0303,-0.0293,-0.0302,-0.0281,-0.0296,-0.0273,-0.0253,-0.0242,-0.0223,-0.0149,-0.0183,-0.0185,-0.0156,-0.0092,-0.0084,-0.0077,-0.0161,-0.016,-0.016,0,0,-0.0096,-0.0144,-0.0151,-0.0172,-0.0218,-0.0238,-0.0249,-0.0285,-0.0283,-0.0294,-0.0301,-0.0308,-0.0279,-0.0254,-0.0237,-0.0254,-0.0184,-0.0253,-0.0215,-0.0155,-0.0146,-0.0138,-0.0113,-0.0102,-0.0236,-0.0236,-0.0236,0,-0.0072,-0.0091,-0.0151,-0.0158,-0.0174,-0.0231,-0.0228,-0.023,-0.0262,-0.0261,-0.0287,-0.0279,-0.0267,-0.0221,-0.0242,-0.0249,-0.0224,-0.0189,-0.0153,-0.0144,-0.0135,-0.0111,-0.0099,-0.0236,-0.0236,-0.0236,-0.0236,0,-0.0044,-0.0054,-0.0062,-0.0092,-0.0115,-0.0129,-0.0163,-0.0171,-0.02,-0.021,-0.0208,-0.0226,-0.0215,-0.0216,-0.023,-0.0169,-0.0177,-0.0173,-0.0124,-0.0126,-0.0103,-0.0091,-0.0236,-0.0236,-0.0236,-0.0236,0,0,-0.0032,-0.0036,-0.0046,-0.0031,-0.0088,-0.0103,-0.0099,-0.011,-0.0097,-0.0127,-0.0102,-0.0114,-0.0147,-0.0134,-0.015,-0.0101,-0.0048,-0.0113,-0.0109,-0.0058,0.0064,0.0038,0.0048,-0.0031,-0.0028,-0.0026,0.0046,0,0.0005,0.0026,-0.0002,0.0021,0.0029,-0.0019,-0.0016,-0.0037,-0.0056,-0.0044,-0.0057,-0.0052,-0.0103,-0.0112,-0.0074,-0.0048,-0.0011,-0.0069,0.0032,0.0035,0.0039,0.0064,0.006,0.0123,0.0058,0.0061,0.0062,0,0.0013,0.0036,0.0063,0.0077,0.0071,0.0071,0.0051,0.0046,0.0043,0.0029,0.0029,0.0012,0.0053,0.0004,0.0083,0.0048,0.0051,0.007,0.0074,0.0068,0.0034,0.0116,0.0148,0.0083,0.0081,0.008,0.0078,0,0.0019,0.0061,0.0087,0.0091,0.0101,0.0101,0.0085,0.006,0.0053,0.0074,0.008,0.0113,0.0119,0.0165,0.0163,0.0137,0.0255,0.023,0.0208,0.0205,0.0233,0.0228,0.0291,0.0291,0.0291,0.0291,0.0291,0,0.0028,0.0058,0.0104,0.012,0.0144,0.0119,0.0123,0.0111,0.0101,0.0118,0.0108,0.0154,0.0161,0.0209,0.0217,0.0254,0.0298,0.0235,0.0239,0.0226,0.022,0.0213,0.0203,0.0293,0.0293,0.0292,0.0292,0,0.0022,0.0042,0.0104,0.0148,0.014,0.015,0.0126,0.0134,0.0123,0.0154,0.0162,0.0192,0.0262,0.0264,0.0337,0.0312,0.0364,0.0353,0.0312,0.0311,0.0255,0.0244,0.0364,0.0364,0.0364,0.0364,0.0364,0,0.0027,0.0047,0.0116,0.0129,0.0148,0.0156,0.0133,0.0121,0.0139,0.0201,0.0231,0.0284,0.0346,0.0417,0.0393,0.0408,0.0383,0.0386,0.0337,0.028,0.0272,0.026,0.0249,0.0363,0.0363,0.0363,0.0363,0,0.0063,0.008,0.0145,0.0159,0.016,0.0184,0.018,0.0209,0.0218,0.0256,0.0355,0.0416,0.0442,0.046,0.0422,0.0429,0.0388,0.0385,0.0391,0.033,0.0281,0.0271,0.0261,0.0363,0.0363,0.0363,0.0363,0.0363,0.0097,0.0138,0.0188,0.0217,0.0221,0.0249,0.0267,0.03,0.0347,0.0417,0.0462,0.0516,0.0506,0.0461,0.0444,0.0378,0.0387,0.0366,0.0366,0.0365,0.0338,0.0291,0.0367,0.0367,0.0367,0.0367,0.0367,0,0.0175,0.0183,0.0217,0.0256,0.0299,0.0274,0.0315,0.0343,0.0429,0.0461,0.052,0.0514,0.0524,0.0477,0.0377,0.0347,0.0337,0.0333,0.0327,0.0329,0.033,0.0299,0.0319,0.0318,0.0318,0.0317,0,0,0.0185,0.0239,0.0265,0.0344,0.0356,0.0366,0.0411,0.0441,0.0464,0.0517,0.0506,0.0554,0.052,0.0443,0.041,0.0345,0.0336,0.0334,0.0382,0.0381,0.0382,0.0364,0.0319,0,0,0,0,0]}],[{"header":{"parameterUnit":"m.s-1","parameterCategory":2,"la1":30.2991,"la2":30.254,"lo1":-89.0895,"lo2":-89.0444,"dy":0.0017,"dx":0.0017,"nx":28,"ny":28,"refTime":"2025-07-27T03:00:00:Z","depth":"4","parameterNumber":2,"parameterNumberName":"U-component_of_CURRENTS"},"data":[0,0,0,0,0,0,0,0,0,0,0,0,0,0,0,0,0,0,0,0,0,0,0,0,0,0,0,0,0,0,0,0,0,0,0,0,0,0,0,0,0,0,0,0,0,0,0,0,0,0,0,0,0,0,0,0,0,0,-0.0562,-0.0562,0,-0.0544,-0.0543,-0.0543,-0.0524,-0.0524,-0.0524,-0.0524,-0.0524,-0.0524,-0.0524,0,0,0,0,0,0,0,0,0,0,0,0,0,-0.0561,-0.0561,-0.0562,-0.0562,-0.0563,-0.0544,-0.0543,-0.0543,-0.0524,-0.0524,-0.0524,-0.0524,-0.0524,-0.0524,-0.0524,0,0,0,0,0,0,0,0,0,0,0,0,0,-0.055,-0.0561,-0.0562,-0.0553,-0.0553,-0.0544,-0.0543,-0.0542,-0.0524,-0.0524,-0.0524,-0.0524,-0.0524,-0.0524,-0.0524,-0.0522,0,0,-0.0524,-0.0524,0,0,0,0,0,0,0,0,-0.0551,-0.055,-0.0555,-0.0554,-0.0553,-0.0539,-0.0543,-0.0538,-0.0523,-0.0531,-0.0524,-0.0524,-0.0533,-0.0532,-0.0523,-0.0522,-0.0522,-0.0524,-0.0524,-0.0524,-0.0524,0,0,0,0,0,0,0,-0.0552,-0.0551,-0.0551,-0.0555,-0.0554,-0.0543,-0.0542,-0.0541,-0.0529,-0.053,-0.053,-0.0533,-0.0533,-0.0524,-0.0524,-0.0522,-0.0524,-0.0524,-0.0524,-0.0524,-0.0566,-0.0567,0,0,0,0,0,0,-0.0562,-0.0551,-0.0552,-0.0551,-0.0556,-0.0544,-0.0542,-0.0541,-0.0529,-0.0528,-0.0533,-0.0532,-0.0524,-0.0524,-0.0524,-0.0517,-0.0524,-0.0524,-0.0524,-0.0565,-0.0566,-0.0568,0,0,0,0,0,0,-0.0562,-0.0562,-0.0553,-0.0554,-0.0552,-0.0544,-0.0543,-0.054,-0.0541,-0.0532,-0.053,-0.0538,-0.0524,-0.0524,-0.0525,-0.0517,-0.0524,-0.0524,-0.0564,-0.0566,-0.0567,-0.0507,0,0,0,0,0,0,-0.0562,-0.0562,-0.057,-0.0555,-0.0553,-0.0553,-0.0543,-0.054,-0.0544,-0.0543,-0.0535,-0.0535,-0.0524,-0.0525,-0.0525,-0.0518,-0.0524,-0.0562,-0.0565,-0.0567,-0.0508,-0.0507,-0.0506,0,0,0,0,0,-0.0562,-0.057,-0.057,-0.0571,-0.0562,-0.0554,-0.0552,-0.0544,-0.0544,-0.0544,-0.0537,-0.0535,-0.054,-0.0525,-0.0525,-0.0517,-0.0561,-0.0564,-0.0566,-0.0508,-0.0507,-0.0506,0,0,0,0,0,0,-0.0572,-0.0569,-0.0569,-0.0575,-0.057,-0.0552,-0.0559,-0.0552,-0.0545,-0.0548,-0.0536,-0.0535,-0.054,-0.0548,-0.0532,-0.0544,-0.0556,-0.0559,-0.0512,-0.0511,-0.051,-0.0502,-0.0524,0,0,0,0,0,-0.0579,-0.0587,-0.0578,-0.0585,-0.0586,-0.0575,-0.0574,-0.0566,-0.0558,-0.0555,-0.0552,-0.0556,-0.055,-0.0545,-0.0553,-0.0547,-0.0547,-0.0552,-0.0551,-0.055,-0.0548,-0.0508,-0.0501,-0.0576,-0.0576,-0.0576,0,0,-0.0589,-0.0587,-0.0593,-0.0589,-0.0586,-0.0589,-0.0574,-0.0576,-0.0584,-0.0558,-0.0574,-0.0556,-0.0554,-0.0546,-0.055,-0.0547,-0.0539,-0.0553,-0.0551,-0.055,-0.051,-0.0502,-0.0494,-0.0578,-0.0578,-0.0577,0,0,-0.0598,-0.0608,-0.0612,-0.0608,-0.0607,-0.0607,-0.0612,-0.0602,-0.0607,-0.0609,-0.0593,-0.0566,-0.058,-0.055,-0.0542,-0.0547,-0.0542,-0.0564,-0.0533,-0.0493,-0.0485,-0.0478,-0.0498,-0.0493,-0.0552,-0.0552,-0.0552,0,-0.0608,-0.0611,-0.0612,-0.0609,-0.0624,-0.062,-0.0632,-0.063,-0.0623,-0.0622,-0.0621,-0.0594,-0.058,-0.0541,-0.0527,-0.054,-0.0534,-0.0524,-0.0485,-0.0478,-0.0472,-0.0494,-0.0489,-0.0549,-0.0549,-0.055,-0.055,0,-0.061,-0.0618,-0.0622,-0.0628,-0.0646,-0.0653,-0.0663,-0.0671,-0.0681,-0.0664,-0.0646,-0.0605,-0.0575,-0.0567,-0.0536,-0.0483,-0.0503,-0.0489,-0.0473,-0.0459,-0.0486,-0.0481,-0.0545,-0.0546,-0.0547,-0.0548,0,0,-0.0612,-0.0623,-0.0624,-0.0639,-0.066,-0.0673,-0.0701,-0.0711,-0.0708,-0.0691,-0.0676,-0.0622,-0.057,-0.0557,-0.0509,-0.0457,-0.0398,-0.0437,-0.0436,-0.0432,-0.0343,-0.0334,-0.0329,-0.0355,-0.0353,-0.0352,-0.0388,0,-0.0613,-0.0615,-0.0639,-0.0671,-0.0678,-0.0709,-0.073,-0.0737,-0.0737,-0.0716,-0.0661,-0.062,-0.0577,-0.0526,-0.0468,-0.0414,-0.0379,-0.0392,-0.038,-0.0381,-0.035,-0.032,-0.0347,-0.0385,-0.0385,-0.0384,-0.0383,0,-0.0601,-0.0607,-0.0635,-0.0683,-0.0695,-0.0726,-0.0769,-0.0778,-0.0747,-0.073,-0.0668,-0.0622,-0.0533,-0.0499,-0.0406,-0.0409,-0.037,-0.0338,-0.0339,-0.0343,-0.0362,-0.0399,-0.0376,-0.0377,-0.0377,-0.0378,-0.0378,0,-0.058,-0.0613,-0.0648,-0.066,-0.0704,-0.0744,-0.0772,-0.0771,-0.0768,-0.0712,-0.0676,-0.06,-0.0526,-0.0472,-0.0395,-0.0385,-0.0317,-0.0307,-0.0284,-0.0287,-0.031,-0.0317,-0.0249,-0.0249,-0.0249,-0.0249,-0.0249,0,-0.0563,-0.0589,-0.0641,-0.0648,-0.0691,-0.0733,-0.0761,-0.076,-0.0742,-0.0703,-0.0653,-0.0592,-0.0499,-0.0448,-0.0409,-0.0337,-0.0332,-0.0276,-0.0276,-0.0294,-0.0299,-0.0309,-0.0316,-0.025,-0.025,-0.025,-0.025,0,-0.0529,-0.056,-0.0595,-0.0654,-0.0675,-0.0703,-0.0752,-0.0742,-0.0725,-0.0673,-0.0643,-0.0564,-0.047,-0.0431,-0.0341,-0.0333,-0.0292,-0.0274,-0.034,-0.0345,-0.0298,-0.0302,-0.0257,-0.0257,-0.0256,-0.0256,-0.0256,0,-0.0513,-0.052,-0.0581,-0.0598,-0.0635,-0.0675,-0.0682,-0.071,-0.0697,-0.0647,-0.0609,-0.0513,-0.045,-0.0347,-0.0312,-0.0282,-0.0259,-0.0289,-0.0243,-0.0285,-0.029,-0.0294,-0.0298,-0.0255,-0.0255,-0.0255,-0.0255,0,-0.0481,-0.0508,-0.0529,-0.0545,-0.0583,-0.0606,-0.0629,-0.0618,-0.0621,-0.0621,-0.0524,-0.0465,-0.0366,-0.0298,-0.0273,-0.0253,-0.0298,-0.0285,-0.0285,-0.0241,-0.0282,-0.0288,-0.0293,-0.0253,-0.0254,-0.0254,-0.0254,0,-0.0458,-0.046,-0.048,-0.0504,-0.0526,-0.0525,-0.0552,-0.0538,-0.0534,-0.05,-0.0468,-0.0382,-0.034,-0.0284,-0.0273,-0.0241,-0.022,-0.0238,-0.024,-0.0241,-0.0215,-0.0264,-0.0217,0,0,0,0,0,-0.0421,-0.0418,-0.0431,-0.0458,-0.0471,-0.0487,-0.0505,-0.053,-0.0547,-0.0459,-0.0465,-0.0372,-0.0294,-0.0273,-0.0224,-0.0272,-0.0236,-0.0224,-0.0262,-0.0246,-0.0247,-0.0215,0,0,0,0,0,0,-0.0402,-0.0406,-0.0414,-0.041,-0.0409,-0.0426,-0.043,-0.0444,-0.041,-0.0413,-0.0355,-0.0376,-0.0289,-0.0288,-0.0215,-0.0214,-0.0242,-0.0202,-0.0202,-0.0245,-0.0246,-0.0248,-0.0215,0,0,0,0,0]},{"header":{"parameterUnit":"m.s-1","parameterCategory":2,"la1":30.2991,"la2":30.254,"lo1":-89.0895,"lo2":-89.0444,"dy":0.0017,"dx":0.0017,"nx":28,"ny":28,"refTime":"2025-07-27T03:00:00:Z","depth":"4","parameterNumber":3,"parameterNumberName":"V-component_of_CURRENTS"},"data":[0,0,0,0,0,0,0,0,0,0,0,0,0,0,0,0,0,0,0,0,0,0,0,0,0,0,0,0,0,0,0,0,0,0,0,0,0,0,0,0,0,0,0,0,0,0,0,0,0,0,0,0,0,0,0,0,0,0,0.039,0.039,0,0.042,0.0421,0.0421,0.0449,0.0449,0.0449,0.045,0.0463,0.0463,0.0463,0,0,0,0,0,0,0,0,0,0,0,0,0,0.0337,0.0338,0.039,0.039,0.0391,0.042,0.0421,0.0421,0.0449,0.0449,0.045,0.045,0.0463,0.0463,0.0463,0,0,0,0,0,0,0,0,0,0,0,0,0,0.0363,0.0338,0.039,0.0408,0.041,0.042,0.0421,0.0421,0.0449,0.0449,0.045,0.045,0.0463,0.0463,0.0463,0.0454,0,0,0.0464,0.0464,0,0,0,0,0,0,0,0,0.0361,0.0365,0.0405,0.0407,0.0409,0.0431,0.0407,0.0431,0.0449,0.0434,0.045,0.045,0.045,0.0452,0.0457,0.0455,0.0455,0.0464,0.0464,0.0464,0.0464,0,0,0,0,0,0,0,0.036,0.0364,0.0402,0.0405,0.0408,0.0408,0.0412,0.0411,0.0439,0.0435,0.0438,0.044,0.0452,0.0457,0.0457,0.0455,0.0464,0.0464,0.0464,0.0464,0.0495,0.0496,0,0,0,0,0,0,0.0356,0.0362,0.0401,0.0403,0.0386,0.0408,0.0413,0.0424,0.0439,0.0442,0.044,0.0442,0.0456,0.0457,0.0458,0.0492,0.0464,0.0464,0.0464,0.0494,0.0495,0.0496,0,0,0,0,0,0,0.0355,0.036,0.04,0.0383,0.0388,0.0409,0.042,0.0424,0.0434,0.0443,0.0446,0.0446,0.0457,0.0458,0.0452,0.0491,0.0464,0.0464,0.0493,0.0495,0.0496,0.0531,0,0,0,0,0,0,0.0354,0.0359,0.0363,0.0383,0.0389,0.04,0.042,0.0424,0.0434,0.0437,0.0449,0.0451,0.0457,0.0452,0.0452,0.049,0.0464,0.0492,0.0494,0.0495,0.0529,0.0533,0.0537,0,0,0,0,0,0.0352,0.0355,0.0363,0.0368,0.0394,0.04,0.0403,0.0419,0.0434,0.0432,0.0439,0.0451,0.0463,0.0451,0.0452,0.0491,0.0492,0.0494,0.0495,0.0527,0.0532,0.0537,0,0,0,0,0,0,0.0328,0.0359,0.0368,0.038,0.0386,0.0405,0.0408,0.0419,0.0425,0.0431,0.0441,0.0443,0.0471,0.046,0.0448,0.0505,0.0487,0.0489,0.0511,0.0516,0.052,0.0524,0.0464,0,0,0,0,0,0.0326,0.0343,0.0359,0.0367,0.0373,0.0391,0.0396,0.0406,0.0415,0.042,0.043,0.0447,0.0478,0.0476,0.0497,0.05,0.0491,0.0532,0.0536,0.054,0.0543,0.0551,0.0556,0.0502,0.0502,0.0502,0,0,0.0319,0.0337,0.0347,0.0364,0.0376,0.0372,0.0395,0.0404,0.0419,0.0419,0.044,0.0464,0.0484,0.0512,0.0523,0.0504,0.0548,0.0542,0.0545,0.0547,0.0553,0.0558,0.0563,0.0503,0.0503,0.0503,0,0,0.0308,0.0331,0.0337,0.0337,0.0351,0.0363,0.0364,0.0383,0.0415,0.0441,0.0456,0.0478,0.0522,0.0529,0.0547,0.0574,0.0582,0.0604,0.0613,0.062,0.0625,0.0629,0.0614,0.0616,0.0591,0.0591,0.0591,0,0.0297,0.0307,0.0335,0.0328,0.0336,0.0356,0.0355,0.0382,0.0399,0.0434,0.0457,0.0528,0.0536,0.0565,0.059,0.0585,0.0589,0.0594,0.0626,0.0629,0.0632,0.0616,0.0618,0.0593,0.0593,0.0592,0.0592,0,0.0283,0.0284,0.0286,0.0293,0.0303,0.0303,0.0341,0.0372,0.043,0.046,0.0532,0.055,0.0594,0.0609,0.0618,0.0649,0.0644,0.0642,0.0612,0.064,0.0621,0.0623,0.0596,0.0595,0.0594,0.0594,0,0,0.0279,0.0278,0.0279,0.0279,0.0289,0.0299,0.0345,0.0395,0.0439,0.0491,0.0556,0.0612,0.0637,0.0655,0.0661,0.0659,0.0684,0.0669,0.0668,0.0652,0.0699,0.0621,0.0614,0.0701,0.0701,0.0702,0.0672,0,0.026,0.024,0.0261,0.0252,0.0244,0.0295,0.0337,0.0388,0.0463,0.0523,0.0579,0.0644,0.0651,0.0694,0.0693,0.0701,0.0693,0.0692,0.0676,0.0675,0.0601,0.0615,0.0704,0.0673,0.0674,0.0674,0.0674,0,0.0245,0.0232,0.0228,0.0248,0.0258,0.0289,0.0383,0.0424,0.0513,0.0578,0.0642,0.068,0.071,0.072,0.0726,0.0736,0.0727,0.0715,0.0713,0.063,0.0599,0.0642,0.0676,0.0676,0.0676,0.0676,0.0676,0,0.0229,0.0218,0.0226,0.0224,0.0248,0.0323,0.038,0.0467,0.0533,0.0633,0.0684,0.0714,0.0763,0.076,0.0743,0.076,0.0725,0.0739,0.0644,0.0638,0.0702,0.0698,0.0734,0.0734,0.0734,0.0734,0.0734,0,0.0208,0.0207,0.024,0.024,0.0288,0.0341,0.044,0.0503,0.0612,0.066,0.0727,0.0752,0.0786,0.0768,0.0747,0.0686,0.0729,0.0646,0.0628,0.0715,0.0714,0.0702,0.0698,0.0733,0.0733,0.0733,0.0733,0,0.0191,0.02,0.0202,0.0253,0.0284,0.0347,0.0486,0.055,0.0657,0.0729,0.0772,0.0813,0.0788,0.076,0.0732,0.0689,0.0635,0.0595,0.0665,0.0652,0.0546,0.0545,0.0517,0.0515,0.0512,0.051,0.0508,0,0.0179,0.0177,0.0208,0.0248,0.03,0.0399,0.0464,0.0577,0.0642,0.0735,0.0755,0.0774,0.077,0.0661,0.0637,0.0563,0.0547,0.0523,0.0564,0.054,0.0526,0.0529,0.0531,0.0504,0.0504,0.0503,0.0502,0,0.0151,0.0176,0.0178,0.026,0.0345,0.0384,0.0503,0.0548,0.0655,0.0719,0.0734,0.0716,0.0663,0.0614,0.0546,0.0494,0.0549,0.0497,0.0503,0.0542,0.0524,0.0513,0.0518,0.0494,0.0495,0.0496,0.0496,0,0.0143,0.0153,0.0197,0.0279,0.0357,0.0412,0.0441,0.0519,0.0581,0.0686,0.0662,0.0651,0.0657,0.0573,0.0503,0.045,0.0457,0.0453,0.0461,0.0471,0.0463,0.0433,0.0358,0,0,0,0,0,0.0141,0.0183,0.0234,0.032,0.0394,0.0435,0.0488,0.0515,0.0586,0.0582,0.0643,0.0586,0.0524,0.0505,0.0436,0.0461,0.0445,0.0378,0.0443,0.0446,0.0456,0.0447,0,0,0,0,0,0,0.0155,0.0197,0.0227,0.0351,0.0422,0.0484,0.0503,0.0515,0.0522,0.0581,0.0539,0.0566,0.0494,0.0566,0.0438,0.0427,0.0454,0.0365,0.0363,0.044,0.0449,0.0457,0.0451,0,0,0,0,0]}]]